GMT,Max TemperatureF,Mean TemperatureF,Min TemperatureF,Max Dew PointF,MeanDew PointF,Min DewpointF,Max Humidity, Mean Humidity, Min Humidity, Max Sea Level PressureIn, Mean Sea Level PressureIn, Min Sea Level PressureIn, Max VisibilityMiles, Mean VisibilityMiles, Min VisibilityMiles, Max Wind SpeedMPH, Mean Wind SpeedMPH, Max Gust SpeedMPH,PrecipitationIn, CloudCover, Events, WindDirDegrees
2013-2-1,48,44,39,41,38,36,93,83,66,29.98,29.71,29.59,16,7,5,23,11,37,0.04,4,Rain,272
2013-2-2,49,41,33,41,36,32,93,84,66,30.31,30.21,30.01,12,7,6,11,7,,0.00,2,Rain,264
2013-2-3,50,46,41,50,48,41,100,97,90,30.20,30.08,29.98,7,4,1,24,13,,0.03,7,Rain,248
2013-2-4,50,44,37,48,38,30,94,79,66,30.06,29.97,29.80,9,6,4,33,24,51,0.08,6,Rain,268
2013-2-5,46,40,34,41,35,28,93,81,64,29.95,29.73,29.65,12,6,2,32,24,54,0.16,4,Rain-Snow-Hail,291
2013-2-6,45,39,33,37,34,32,93,79,58,30.36,30.21,29.95,19,7,6,20,12,,0.01,2,Rain,315
2013-2-7,49,41,33,45,38,34,100,86,66,30.36,30.23,30.12,12,6,4,26,8,39,0.08,4,Rain,269
2013-2-8,50,44,39,43,40,36,93,85,71,30.36,30.32,30.27,12,6,6,15,7,,0.00,5,Rain,281
2013-2-9,49,45,41,46,44,41,100,94,87,30.27,30.01,29.62,9,6,2,12,6,,0.24,6,Rain,149
2013-2-10,44,42,41,47,40,34,100,88,66,29.63,29.40,29.30,12,6,3,18,9,30,0.00,6,Rain,271
2013-2-11,43,41,39,41,40,37,100,92,82,29.80,29.57,29.33,9,6,3,20,11,,0.08,6,Rain,323
2013-2-12,45,42,39,43,40,37,100,93,86,29.97,29.91,29.83,12,6,2,17,8,,0.04,6,Rain,212
2013-2-13,53,46,40,52,47,41,100,97,88,29.91,29.79,29.71,10,5,2,21,14,,0.51,6,Rain,206
2013-2-14,51,46,41,45,42,39,100,87,68,30.09,29.92,29.74,12,6,4,22,13,31,0.02,3,Rain,258
2013-2-15,51,44,37,46,41,37,100,89,66,30.13,30.09,30.04,19,7,5,13,7,,0.00,6,Rain,154
2013-2-16,52,49,46,50,46,43,100,89,76,30.07,29.98,29.92,12,6,6,23,14,,0.00,6,Rain,139
2013-2-17,49,46,44,45,41,37,87,77,60,29.91,29.84,29.80,19,7,6,29,22,41,0.00,5,,135
2013-2-18,49,45,41,45,39,35,93,76,48,29.98,29.89,29.83,19,7,6,26,15,26,0.00,5,,117
2013-2-19,51,45,39,45,41,36,93,82,58,30.01,29.99,29.95,12,6,4,18,12,,0.00,5,,118
2013-2-20,48,42,37,41,37,34,93,79,66,30.02,29.99,29.95,7,6,5,24,13,,0.00,4,,105
2013-2-21,42,40,37,37,32,28,81,69,56,30.05,30.01,29.98,12,7,6,29,19,43,0.00,6,,109
2013-2-22,37,36,33,28,25,23,75,63,48,30.27,30.14,30.04,19,7,6,20,14,,0.00,7,,96
2013-2-23,37,34,30,27,26,22,86,69,48,30.33,30.27,30.24,12,7,6,23,4,,0.00,7,,33
2013-2-24,44,35,26,32,28,25,93,74,47,30.45,30.38,30.33,16,7,6,10,5,,0.00,2,,85
2013-2-25,46,35,24,32,27,21,93,71,48,30.54,30.51,30.45,19,7,4,10,6,,0.00,1,,86
2013-2-26,44,35,26,36,32,25,93,83,66,30.63,30.58,30.54,9,6,4,13,4,,0.00,5,,76
2013-2-27,42,40,39,37,37,34,93,84,74,30.67,30.64,30.60,10,5,3,12,5,,0.00,7,,39
2013-2-28,41,38,35,37,34,28,100,86,72,30.62,30.55,30.51,7,5,3,14,8,,0.00,6,,24